Zurück zum Katalog

STARLINK-37477

AktivKommunikationSSO
NORAD 68912·PAYLOAD·🇺🇸 United States

Gestartet Apr 30, 2026 von Vandenberg Space Force Base

Loading…

Nächste Überflüge (nächste 24 Stunden)

TLE

AktuellSource: CelesTrak SupGP

Epoche: Sep 14, 2026, 14:28 UTC

1 68912C 26097T   26257.60326389 -.00044580  00000+0 -13833-2 0  2578
2 68912  97.2849  91.8654 0001628  86.6192 161.5976 15.33474938    12

Verfolge STARLINK-37477 in Echtzeit mit AllMySat

Download on the App Store